Showing default

RSW-02, 49114

Orbit data source: Space-Track

RSW-02, 49114 is a payload satellite owned by CAST (CN) in LEO that was launched on Tue, 24 Aug 2021 UTC via a CHANG ZHENG 2C/YZ-1S launch vehicle from the Jiuquan Satellite Launch Center, China (JSC). Payload-class satellites include a variety of spacecraft equipped with specific instruments for various scientific and technological missions. These include communications satellites like Starlink; space stations such as the ISS; scientific satellites like the Hubble; Earth observation satellites from companies like Planet Labs, Umbra, and HawkEye 360; GPS; miniature CubeSats for education and research; and military/defense satellites.

Loading next visibility...
Identifier
49114, 2021-076C
Orbit
LEO
Country
Flag of CNCN / PRC
Related business
Manufacturer
CAST?
Mission
Operational Civil Communications
Bus & Motor
Unknown
Mass
~300 kg wet, ~300 kg dry
Launch date (UTC)
2021-08-24 (5 years ago)
Launch vehicle
CHANG ZHENG 2C/YZ-1S
Launch site
Jiuquan Satellite Launch Center, China (JSC)
Object type
Payload
Rocket body
Debris
Shape & HBR
Box + 2 Pan, 1.3 m
Radar Cross Section
2.320 m², Large (>1 m²)

Expand to show TLE details & history
Last TLE update: 1 day ago

TLE from 1 day ago
0 RSW-02
1 49114U 21076C   26172.51190177  .00000230  00000-0  37759-3 0  9993
2 49114  86.4106 156.2577 0020864  53.2050 307.1005 13.42854306236467
Epoch: 2026-06-21T12:17Z
TLE epoch observation values (Epoch: 2026-06-21T12:17:08.312Z)
Latitude
-0.00005°
Longitude
62.26195°
Altitude
1,092.195 km
Speed
7.311 km/s
True Right ascension
10h 25m 01s
True Declination
0° 00' 00"
Sunlit
Object was in daylight at epoch
Visualization orbit readout
Latitude
Unknown
Longitude
Unknown
Altitude
Unknown
Speed
Unknown
Apparent Right ascension
Unknown
Apparent Declination
Unknown
Sunlit
N/A
Visualization observer readout
Local Sidereal Time
00:32:05
Azimuth
Unknown
Elevation
Unknown
Doppler factor
Unknown
Orbital elements
Apogee altitude
1,111.354 km
Perigee altitude
1,080.167 km
Semi-major axis
7,473.897 km
Eccentricity
0.00209
Inclination
86.4106°
RAAN
156.2577°
Arg. of periapsis
53.205°
True anomaly
306.90951°
Mean anomaly
307.1005°
Eccentric anomaly
307.00504°
Mean motion
3.3591 °/min
Orbital period
107.17 mins
BSTAR
0.00037759
Loading maneuver chart data...
Computing Atmospheric mass density...
Loading historical data...
Loading historical data...
Loading historical data...
Loading historical data...
Loading historical data...
Loading historical data...
Loading historical data...
Other satellites on launch #76 in the year 2021 (2021-08-24 UTC)

Documentation

Showing up to 5 results
|